Total_Precipitation_Accumulation
1.65 1.73 2.02 1.54 1.21 1.33 1.47 1.43 2.00 1.86 1.84 3.56 2.32 1.39 1.19 1.15 1.41 1.58 1.16 0.67 0.34 0.28 0.39 0.73 0.73 0.81 0.91 0.50 0.28 0.24 0.32 0.72 0.82 0.64 0.23 0.31 0.83 0.87 0.77 1.44 1.08 1.10 1.07 1.84
1.40 1.63 1.65 1.19 1.41 1.71 2.08 1.71 1.70 2.51 1.40 1.57 0.93 0.90 1.25 1.38 1.48 1.42 1.00 0.63 0.31 0.21 0.24 0.51 0.34 0.41 0.35 0.24 0.15 0.07 0.21 0.61 0.69 0.78 0.56 0.41 0.78 0.75 0.75 0.77 1.18 1.26 1.62 2.17
1.41 1.36 1.12 1.08 1.25 1.52 1.64 1.67 2.03 3.17 2.67 0.71 0.38 0.77 1.18 1.23 1.16 1.11 0.75 0.67 0.36 0.30 0.22 0.12 0.10 0.15 0.23 0.30 0.35 0.19 0.18 0.29 0.53 0.62 0.62 0.65 0.74 0.59 0.70 0.98 1.47 0.93 1.51 1.35
1.83 1.24 0.82 0.79 0.78 1.08 1.01 1.15 1.03 0.91 1.00 0.43 0.24 0.72 1.03 1.22 1.28 0.83 0.79 0.76 0.31 0.25 0.24 0.10 0.08 0.09 0.19 0.28 0.49 0.50 0.41 0.37 0.55 0.59 0.34 0.37 0.78 0.62 0.57 1.02 0.80 1.17 0.92 0.81
2.03 1.34 0.78 0.56 0.63 1.21 1.11 0.88 0.57 0.23 0.13 0.07 0.13 0.48 0.91 1.21 0.79 0.68 0.68 0.53 0.28 0.28 0.20 0.08 0.05 0.10 0.16 0.27 0.36 0.45 0.34 0.35 0.35 0.50 0.45 0.69 0.55 0.33 0.41 0.34 0.39 0.44 0.20 0.47
1.69 1.06 0.89 0.86 1.09 1.71 1.58 0.80 0.47 0.28 0.16 0.12 0.23 0.31 0.68 0.75 0.71 0.63 0.34 0.38 0.35 0.21 0.11 0.08 0.04 0.07 0.05 0.12 0.20 0.17 0.20 0.17 0.29 0.73 0.53 0.57 0.52 0.40 0.25 0.21 0.26 0.17 0.18 0.20
1.42 0.75 0.69 0.60 0.62 1.02 1.29 0.75 0.65 0.38 0.21 0.09 0.14 0.17 0.39 0.60 0.64 0.69 0.44 0.36 0.34 0.15 0.14 0.13 0.06 0.05 0.06 0.05 0.06 0.10 0.15 0.10 0.21 0.50 0.28 0.48 0.32 0.29 0.43 0.25 0.20 0.06 0.06 0.02
0.87 0.53 0.59 0.68 0.65 0.81 0.70 0.57 0.67 0.38 0.26 0.09 0.11 0.12 0.23 0.42 0.49 0.59 0.50 0.33 0.28 0.24 0.35 0.29 0.23 0.25 0.23 0.11 0.05 0.05 0.05 0.11 0.23 0.37 0.44 0.19 0.06 0.12 0.17 0.12 0.07 0.05 0.05 0.01
0.60 0.40 0.32 0.33 0.31 0.35 0.46 0.61 0.64 0.41 0.28 0.12 0.06 0.08 0.13 0.45 0.64 0.72 0.53 0.37 0.20 0.29 0.45 0.32 0.27 0.34 0.17 0.10 0.06 0.04 0.04 0.05 0.29 0.23 0.24 0.08 0.02 0.00 0.00 0.13 0.26 0.04 0.03 0.02
0.60 0.53 0.42 0.35 0.33 0.38 0.38 0.56 0.57 0.51 0.31 0.04 0.05 0.09 0.15 0.36 0.69 0.87 0.61 0.41 0.37 0.41 0.54 0.29 0.06 0.07 0.03 0.04 0.04 0.06 0.16 0.17 0.25 0.21 0.27 0.02 0.00 0.00 0.00 0.05 0.13 0.06 0.03 0.01
0.58 0.60 0.42 0.29 0.26 0.40 0.36 0.30 0.51 0.48 0.30 0.06 0.03 0.06 0.13 0.14 0.43 1.05 0.83 0.57 0.48 0.48 0.54 0.30 0.07 0.01 0.01 0.01 0.00 0.00 0.05 0.09 0.12 0.09 0.10 0.02 0.00 0.01 0.03 0.03 0.00 0.00 0.00 0.01
0.40 0.47 0.36 0.29 0.31 0.48 0.52 0.26 0.32 0.50 0.38 0.10 0.04 0.04 0.06 0.10 0.26 0.71 0.82 0.58 0.46 0.30 0.33 0.15 0.06 0.02 0.01 0.00 0.02 0.00 0.01 0.00 0.01 0.01 0.02 0.00 0.00 0.01 0.00 0.00 0.00 0.00 0.00 0.00
0.45 0.42 0.38 0.34 0.32 0.52 0.66 0.30 0.30 0.46 0.41 0.13 0.05 0.03 0.02 0.02 0.12 0.30 0.78 0.69 0.57 0.43 0.17 0.22 0.11 0.07 0.02 0.02 0.01 0.00 0.00 0.00 0.01 0.00 0.00 0.00 0.00 0.00 0.00 0.01 0.04 0.01 0.00 0.00
0.43 0.43 0.43 0.33 0.32 0.50 0.66 0.27 0.31 0.43 0.39 0.21 0.04 0.02 0.04 0.04 0.15 0.29 0.51 0.73 0.52 0.46 0.27 0.42 0.33 0.16 0.03 0.02 0.01 0.00 0.00 0.01 0.01 0.02 0.00 0.00 0.00 0.00 0.00 0.07 0.06 0.00 0.00 0.00
0.48 0.48 0.43 0.33 0.38 0.59 0.52 0.20 0.42 0.34 0.50 0.55 0.10 0.03 0.04 0.02 0.16 0.34 0.51 0.77 0.58 0.51 0.49 0.36 0.28 0.20 0.10 0.03 0.00 0.01 0.02 0.02 0.00 0.03 0.00 0.00 0.00 0.00 0.05 0.04 0.03 0.02 0.00 0.03
0.46 0.48 0.46 0.42 0.59 1.07 0.72 0.56 0.43 0.46 0.51 1.13 0.35 0.04 0.03 0.02 0.21 0.45 0.53 0.55 0.51 0.56 0.55 0.37 0.18 0.12 0.16 0.19 0.06 0.01 0.00 0.00 0.00 0.00 0.00 0.00 0.00 0.00 0.00 0.03 0.02 0.02 0.01 0.02
0.67 0.70 0.73 0.72 1.01 0.95 0.78 0.40 0.46 0.43 0.76 0.94 0.43 0.18 0.06 0.06 0.26 0.53 0.66 0.45 0.49 0.68 0.76 0.45 0.18 0.16 0.29 0.24 0.04 0.01 0.00 0.00 0.00 0.00 0.00 0.00 0.00 0.00 0.00 0.00 0.01 0.04 0.05 0.04
1.08 1.21 1.27 1.44 1.64 1.42 0.70 0.17 0.43 0.68 0.97 0.89 0.73 0.25 0.11 0.16 0.54 0.67 0.64 0.63 0.55 0.70 0.59 0.36 0.19 0.19 0.33 0.27 0.01 0.00 0.00 0.00 0.00 0.00 0.00 0.00 0.00 0.00 0.01 0.04 0.09 0.10 0.06 0.02
1.70 1.88 1.94 2.03 1.40 0.58 0.32 0.41 0.94 0.88 1.22 1.41 0.75 0.31 0.28 0.23 0.57 0.58 0.72 0.66 0.76 0.55 0.38 0.25 0.38 0.30 0.19 0.03 0.00 0.00 0.00 0.00 0.00 0.00 0.00 0.00 0.00 0.02 0.07 0.12 0.09 0.03 0.01 0.00
2.50 2.23 1.81 1.50 0.73 0.70 0.97 1.39 1.79 2.24 1.57 0.99 0.71 0.16 0.32 0.29 0.49 0.54 0.76 0.83 0.75 0.58 0.31 0.32 0.44 0.27 0.09 0.02 0.00 0.00 0.00 0.00 0.00 0.00 0.00 0.01 0.04 0.07 0.05 0.02 0.00 0.00 0.00 0.00
2.85 2.34 1.75 1.51 1.51 1.61 1.72 1.70 1.47 0.98 0.86 0.48 0.25 0.15 0.32 0.27 0.60 0.70 0.61 1.07 0.70 0.62 0.38 0.63 0.52 0.33 0.09 0.00 0.00 0.00 0.00 0.00 0.00 0.00 0.00 0.00 0.01 0.00 0.00 0.00 0.00 0.00 0.00 0.00
1.86 1.59 2.08 2.34 2.32 2.24 1.73 1.28 0.70 0.58 0.20 0.23 0.30 0.27 0.28 0.34 0.48 0.84 1.11 0.84 0.96 0.53 0.41 0.73 0.41 0.14 0.02 0.01 0.01 0.00 0.00 0.00 0.00 0.00 0.00 0.00 0.00 0.00 0.00 0.01 0.00 0.00 0.00 0.00
2.84 3.97 4.11 2.97 2.45 1.71 1.11 0.70 0.74 0.58 0.39 0.43 0.44 0.41 0.29 0.47 0.73 0.98 1.21 1.06 0.59 0.34 0.50 0.28 0.08 0.04 0.02 0.02 0.03 0.03 0.05 0.01 0.01 0.01 0.01 0.01 0.02 0.03 0.04 0.04 0.02 0.01 0.01 0.02
5.18 5.12 4.19 1.97 1.34 0.35 0.39 0.37 0.38 0.45 0.47 0.46 0.48 0.60 0.61 0.62 0.98 1.02 0.90 0.72 0.66 0.53 0.22 0.11 0.09 0.05 0.02 0.03 0.07 0.07 0.13 0.24 0.23 0.16 0.09 0.07 0.06 0.07 0.08 0.08 0.07 0.04 0.03 0.04
5.19 3.76 1.95 0.74 0.15 0.08 0.18 0.24 0.24 0.31 0.37 0.41 0.60 0.78 0.80 0.96 1.30 0.97 0.80 0.95 0.54 0.18 0.14 0.26 0.18 0.14 0.11 0.15 0.18 0.19 0.20 0.34 0.46 0.50 0.45 0.43 0.36 0.33 0.26 0.16 0.12 0.12 0.07 0.05
4.68 2.96 1.08 0.20 0.04 0.07 0.13 0.20 0.25 0.33 0.42 0.49 0.70 0.88 1.13 1.06 0.89 0.91 0.61 0.55 0.38 0.32 0.37 0.38 0.29 0.30 0.28 0.26 0.20 0.17 0.13 0.11 0.12 0.12 0.14 0.16 0.17 0.22 0.24 0.22 0.19 0.21 0.20 0.16
4.43 1.59 0.26 0.03 0.03 0.07 0.13 0.18 0.20 0.19 0.41 0.60 0.80 1.16 0.82 0.94 1.17 0.78 0.57 0.61 0.43 0.23 0.13 0.23 0.25 0.33 0.38 0.41 0.30 0.27 0.20 0.14 0.09 0.07 0.07 0.06 0.06 0.07 0.07 0.06 0.08 0.12 0.23 0.31